Location: Unspecified
(41.5000°N, 0.0000°E)
Time: 21:34:15
(UTC+00:00)

A-11 Canister half - Visible Passes

Search period start: 25 June 2019 00:00
Search period end: 05 July 2019 00:00
Orbit: 1526 x 1683 km, 47.3° (Epoch: 24 June)

Date Brightness Start Highest point End Pass type
(mag) Time Alt. Az. Time Alt. Az. Time Alt. Az.
25 Jun 10.1 01:45:38 20° SSE 01:49:55 28° SE 01:57:24 10° ENE visible
25 Jun 9.1 03:44:24 10° SW 03:53:57 78° SSE 04:03:16 10° ENE visible
26 Jun 10.1 01:25:01 21° SSE 01:28:22 26° SE 01:35:40 10° ENE visible
26 Jun 9.1 03:23:17 12° SW 03:32:20 76° SSE 03:41:39 10° ENE visible
27 Jun 10.1 01:04:22 22° SSE 01:06:49 25° SE 01:13:54 10° E visible
27 Jun 9.1 03:02:38 16° SW 03:10:43 73° SSE 03:20:02 10° ENE visible
28 Jun 10.1 00:43:39 22° SE 00:45:16 23° SE 00:52:09 10° E visible
28 Jun 9.1 02:41:55 20° SW 02:49:06 70° SE 02:58:24 10° ENE visible
29 Jun 10.1 00:22:53 21° SE 00:23:43 22° SE 00:30:21 10° E visible
29 Jun 9.1 02:21:10 24° SW 02:27:30 68° SE 02:36:47 10° ENE visible
30 Jun 10.2 00:02:05 20° SE 00:02:10 20° SE 00:08:32 10° E visible
30 Jun 9.1 02:00:21 28° SW 02:05:54 65° SE 02:15:09 10° ENE visible
30 Jun 10.3 23:41:14 19° ESE 23:41:14 19° ESE 23:46:42 10° E visible
01 Jul 9.1 01:39:29 32° SSW 01:44:18 63° SE 01:53:32 10° ENE visible
01 Jul 9.3 03:39:50 10° W 03:49:23 69° NNW 03:58:44 10° ENE visible
01 Jul 10.4 23:20:18 17° ESE 23:20:18 17° ESE 23:24:50 10° E visible
02 Jul 9.1 01:18:33 36° SSW 01:22:42 60° SE 01:31:54 10° ENE visible
02 Jul 9.3 03:18:09 10° W 03:27:45 71° NNW 03:37:06 10° ENE visible
02 Jul 10.4 22:59:19 16° ESE 22:59:19 16° ESE 23:02:55 10° E visible
03 Jul 9.1 00:57:33 39° SSW 01:01:06 58° SE 01:10:17 10° ENE visible
03 Jul 9.2 02:56:27 10° WSW 03:06:06 72° NNW 03:15:28 10° ENE visible
03 Jul 10.5 22:38:14 14° ESE 22:38:14 14° ESE 22:40:57 10° E visible
04 Jul 9.1 00:36:29 42° S 00:39:30 55° SE 00:48:38 10° ENE visible
04 Jul 9.2 02:34:46 10° WSW 02:44:26 73° NNW 02:53:50 10° ENE visible
04 Jul 10.6 22:17:05 13° ESE 22:17:05 13° ESE 22:18:56 10° E visible
